[[{"header":{"parameterUnit":"m.s-1","parameterCategory":1,"la1":30.2991,"la2":30.254,"lo1":-89.0895,"lo2":-89.0444,"dy":0.0017,"dx":0.0017,"nx":28,"ny":28,"refTime":"2024-12-23T03:00:00:Z","depth":0,"parameterNumber":2,"parameterNumberName":"U-component_of_WINDS"},"data":[0,0,0,0,0,0,0,0,0,0,0,0,0,0,0,0,0,0,0,0,0,0,0,0,0,0,0,0,0,0,0,0,0,0,0,0,0,0,0,0,0,0,0,0,0,0,0,0,0,0,0,0,0,0,0,0,0,0,-5.3857,-5.3858,0,-5.4001,-5.4003,-5.4005,-5.3903,-5.3899,-5.3894,-5.389,-5.404,-5.4048,-5.4056,0,0,0,0,0,0,0,0,0,0,0,0,0,-5.3495,-5.3502,-5.3856,-5.3858,-5.386,-5.4001,-5.4003,-5.4005,-5.3904,-5.3898,-5.3893,-5.3888,-5.4037,-5.4047,-5.4056,0,0,0,0,0,0,0,0,0,0,0,0,0,-5.3647,-5.3505,-5.3856,-5.3827,-5.3825,-5.4001,-5.4003,-5.4006,-5.3905,-5.3898,-5.3891,-5.3885,-5.4034,-5.4046,-5.4058,-5.427,0,0,-5.4095,-5.4101,0,0,0,0,0,0,0,0,-5.3639,-5.3661,-5.3829,-5.3829,-5.3828,-5.3927,-5.393,-5.4094,-5.3907,-5.3875,-5.389,-5.3882,-5.4008,-5.4022,-5.4064,-5.4277,-5.4284,-5.4097,-5.4104,-5.4109,-5.4113,0,0,0,0,0,0,0,-5.3628,-5.3654,-5.3914,-5.3832,-5.3831,-5.3807,-5.3821,-5.3961,-5.3978,-5.3877,-5.387,-5.3889,-5.4006,-5.4052,-5.4067,-5.4286,-5.4096,-5.4107,-5.4115,-5.412,-5.4682,-5.4689,0,0,0,0,0,0,-5.362,-5.3646,-5.3909,-5.3918,-5.3715,-5.3819,-5.3835,-5.3902,-5.3976,-5.3981,-5.3894,-5.3883,-5.4035,-5.4052,-5.4072,-5.4324,-5.4109,-5.4121,-5.4128,-5.4674,-5.4683,-5.4691,0,0,0,0,0,0,-5.3613,-5.3645,-5.3903,-5.378,-5.3811,-5.3833,-5.3909,-5.3909,-5.3954,-5.3989,-5.3992,-5.3938,-5.403,-5.4054,-5.4222,-5.4328,-5.4126,-5.4138,-5.4665,-5.4677,-5.4687,-5.4832,0,0,0,0,0,0,-5.3603,-5.3643,-5.3723,-5.3783,-5.3818,-5.405,-5.3916,-5.3916,-5.3976,-5.3963,-5.4031,-5.4036,-5.4026,-5.4204,-5.4234,-5.4341,-5.4147,-5.4656,-5.467,-5.4684,-5.4818,-5.4847,-5.4872,0,0,0,0,0,-5.359,-5.3758,-5.3727,-5.376,-5.3919,-5.4057,-5.4077,-5.4063,-5.3985,-5.4066,-5.4088,-5.4033,-5.4313,-5.4222,-5.4255,-5.4368,-5.4649,-5.4666,-5.4683,-5.4806,-5.4841,-5.4871,0,0,0,0,0,0,-5.371,-5.3765,-5.3732,-5.3924,-5.3986,-5.4039,-5.414,-5.4101,-5.4187,-5.4171,-5.4151,-5.4167,-5.4342,-5.4372,-5.427,-5.4578,-5.4468,-5.4493,-5.4551,-5.4585,-5.4611,-5.4599,-5.4158,0,0,0,0,0,-5.3759,-5.3866,-5.3909,-5.4074,-5.4107,-5.4119,-5.4179,-5.4163,-5.4227,-5.4252,-5.4287,-5.4352,-5.4454,-5.4522,-5.4618,-5.4823,-5.4836,-5.4917,-5.4944,-5.4966,-5.4986,-5.5097,-5.5133,-5.4747,-5.4747,-5.4746,0,0,-5.386,-5.3904,-5.3972,-5.4099,-5.4145,-5.4257,-5.4142,-5.4264,-5.4347,-5.4271,-5.443,-5.4459,-5.453,-5.4717,-5.4802,-5.4748,-5.5097,-5.4988,-5.5005,-5.5013,-5.5118,-5.5154,-5.5187,-5.4758,-5.4756,-5.4754,0,0,-5.4101,-5.4146,-5.4287,-5.4337,-5.4409,-5.4417,-5.4451,-5.4511,-5.4527,-5.4687,-5.4632,-5.4731,-5.4908,-5.496,-5.501,-5.5275,-5.5227,-5.5308,-5.5447,-5.5555,-5.5585,-5.5612,-5.5705,-5.5738,-5.5329,-5.5329,-5.5329,0,-5.4218,-5.4382,-5.4366,-5.4493,-5.455,-5.4488,-5.4632,-5.4681,-5.4781,-5.4823,-5.4762,-5.4982,-5.5026,-5.5224,-5.5289,-5.5332,-5.5371,-5.5298,-5.5582,-5.5609,-5.5634,-5.5722,-5.5757,-5.5338,-5.5337,-5.5336,-5.5335,0,-5.4522,-5.4638,-5.4744,-5.4842,-5.4912,-5.5047,-5.5051,-5.5125,-5.5104,-5.5118,-5.5282,-5.5333,-5.5438,-5.5485,-5.5466,-5.5681,-5.5645,-5.5585,-5.5473,-5.568,-5.5762,-5.5796,-5.5351,-5.5348,-5.5345,-5.5343,0,0,-5.4838,-5.4927,-5.4966,-5.5009,-5.5086,-5.5175,-5.5309,-5.5411,-5.5474,-5.5547,-5.5657,-5.581,-5.5754,-5.5811,-5.5798,-5.5893,-5.6098,-5.582,-5.5821,-5.5867,-5.6337,-5.6379,-5.6419,-5.6068,-5.6075,-5.608,-5.633,0,-5.5081,-5.5311,-5.5301,-5.5517,-5.5623,-5.5568,-5.5684,-5.5744,-5.5762,-5.5856,-5.5876,-5.5983,-5.5903,-5.5937,-5.6029,-5.6053,-5.6191,-5.6036,-5.617,-5.6175,-5.6149,-5.6462,-5.6507,-5.674,-5.6362,-5.6367,-5.6371,0,-5.5393,-5.5476,-5.5702,-5.5764,-5.5808,-5.5912,-5.6006,-5.6097,-5.6165,-5.6171,-5.6237,-5.6209,-5.6344,-5.6234,-5.642,-5.6315,-5.637,-5.6391,-5.6399,-5.6408,-5.6282,-5.6476,-5.6815,-5.6848,-5.6422,-5.6418,-5.6414,0,-5.5598,-5.5767,-5.5923,-5.5963,-5.6039,-5.6114,-5.6149,-5.6211,-5.6273,-5.6356,-5.6397,-5.6495,-5.6548,-5.6626,-5.6625,-5.6545,-5.6814,-5.6703,-5.6822,-5.6822,-5.6877,-5.6873,-5.7226,-5.692,-5.6919,-5.6918,-5.6918,0,-5.5868,-5.6007,-5.6016,-5.6112,-5.6268,-5.6257,-5.6412,-5.644,-5.6496,-5.6597,-5.6557,-5.6652,-5.6648,-5.6746,-5.6748,-5.6901,-5.6926,-5.6935,-5.6933,-5.6936,-5.6935,-5.6969,-5.6952,-5.6928,-5.6926,-5.6924,-5.6922,0,-5.612,-5.6132,-5.6298,-5.6358,-5.6377,-5.6488,-5.6539,-5.6631,-5.6647,-5.6776,-5.6806,-5.6831,-5.6944,-5.6953,-5.7084,-5.7085,-5.727,-5.7253,-5.7247,-5.7242,-5.736,-5.7348,-5.7744,-5.7795,-5.7459,-5.7462,-5.7465,0,-5.6289,-5.6395,-5.6467,-5.6532,-5.6571,-5.6676,-5.674,-5.6736,-5.6804,-5.6891,-5.6972,-5.7082,-5.7168,-5.7352,-5.7382,-5.7483,-5.7465,-5.7598,-5.748,-5.748,-5.7464,-5.7456,-5.7466,-5.7619,-5.7623,-5.7626,-5.7628,0,-5.6588,-5.6589,-5.6682,-5.6779,-5.6856,-5.6932,-5.7003,-5.7059,-5.7062,-5.7142,-5.7257,-5.7324,-5.7459,-5.7568,-5.7667,-5.7704,-5.7667,-5.7666,-5.7698,-5.7701,-5.7692,-5.7695,-5.7305,-5.7655,-5.7653,-5.7651,-5.7649,-5.7648,-5.6801,-5.6893,-5.6958,-5.7064,-5.7117,-5.7184,-5.7273,-5.7301,-5.7397,-5.7505,-5.7498,-5.7625,-5.7692,-5.7821,-5.7867,-5.7966,-5.7922,-5.7969,-5.798,-5.7991,-5.8002,-5.768,-5.7985,-5.7984,-5.7984,-5.7983,-5.7982,0,-5.7095,-5.7135,-5.7232,-5.7333,-5.7417,-5.7376,-5.7453,-5.7526,-5.7638,-5.7704,-5.7791,-5.7923,-5.803,-5.807,-5.8174,-5.8246,-5.8232,-5.8273,-5.8265,-5.8275,-5.8038,-5.7998,-5.8283,-5.8283,-5.8283,-5.8283,-5.8283,-5.8282,-5.7257,-5.741,-5.7419,-5.7599,-5.7638,-5.7761,-5.7809,-5.7871,-5.7923,-5.8073,-5.8161,-5.8187,-5.8243,-5.8351,-5.8447,-5.8456,-5.8495,-5.8543,-5.8545,-5.8322,-5.8291,-5.8262,-5.8224,-5.8553,-5.8553,-5.8773,-5.8775,-5.8776]},{"header":{"parameterUnit":"m.s-1","parameterCategory":1,"la1":30.2991,"la2":30.254,"lo1":-89.0895,"lo2":-89.0444,"dy":0.0017,"dx":0.0017,"nx":28,"ny":28,"refTime":"2024-12-23T03:00:00:Z","depth":0,"parameterNumber":3,"parameterNumberName":"V-component_of_WINDS"},"data":[0,0,0,0,0,0,0,0,0,0,0,0,0,0,0,0,0,0,0,0,0,0,0,0,0,0,0,0,0,0,0,0,0,0,0,0,0,0,0,0,0,0,0,0,0,0,0,0,0,0,0,0,0,0,0,0,0,0,1.3104,1.3105,0,1.3187,1.3188,1.3189,1.323,1.323,1.323,1.323,1.3312,1.3314,1.3316,0,0,0,0,0,0,0,0,0,0,0,0,0,1.2979,1.2981,1.3104,1.3105,1.3106,1.3187,1.3188,1.3189,1.323,1.323,1.323,1.323,1.3311,1.3313,1.3316,0,0,0,0,0,0,0,0,0,0,0,0,0,1.3044,1.2981,1.3104,1.3136,1.314,1.3187,1.3188,1.3189,1.323,1.323,1.323,1.323,1.331,1.3313,1.3316,1.3335,0,0,1.3326,1.3327,0,0,0,0,0,0,0,0,1.3041,1.3049,1.313,1.3134,1.3138,1.3198,1.3174,1.3238,1.323,1.3196,1.323,1.3231,1.3274,1.328,1.3295,1.3339,1.3343,1.3326,1.3328,1.333,1.3331,0,0,0,0,0,0,0,1.3036,1.3046,1.3137,1.3132,1.3136,1.3146,1.3156,1.3186,1.3233,1.3199,1.3202,1.3212,1.3276,1.3292,1.3297,1.3344,1.3326,1.3329,1.3331,1.3332,1.3409,1.3409,0,0,0,0,0,0,1.3027,1.3042,1.3134,1.3139,1.3089,1.3148,1.3159,1.3179,1.3233,1.3242,1.3212,1.3213,1.3287,1.3294,1.33,1.3327,1.333,1.3333,1.3335,1.3409,1.3409,1.3409,0,0,0,0,0,0,1.3024,1.3034,1.3131,1.3091,1.3104,1.3151,1.3173,1.3181,1.3197,1.3243,1.3251,1.322,1.3287,1.3296,1.3327,1.3331,1.3334,1.3337,1.3409,1.3409,1.3409,1.338,0,0,0,0,0,0,1.302,1.3033,1.3041,1.3091,1.3106,1.3156,1.3173,1.3182,1.3203,1.3206,1.3253,1.326,1.3288,1.3322,1.333,1.3335,1.334,1.3409,1.3409,1.3409,1.3381,1.338,1.3378,0,0,0,0,0,1.3015,1.3028,1.3041,1.3052,1.3117,1.3156,1.3165,1.3197,1.3203,1.3211,1.3241,1.3259,1.3329,1.3325,1.3334,1.334,1.3409,1.3409,1.3409,1.3382,1.338,1.3378,0,0,0,0,0,0,1.2975,1.3035,1.305,1.308,1.3113,1.3163,1.3175,1.3194,1.3224,1.3226,1.3264,1.3274,1.3302,1.3324,1.3318,1.3363,1.3371,1.3373,1.3347,1.3345,1.3344,1.3337,1.3342,0,0,0,0,0,1.2971,1.2998,1.3049,1.307,1.3086,1.3127,1.3146,1.3168,1.3203,1.3217,1.3249,1.3281,1.3311,1.3329,1.3359,1.3385,1.3396,1.3394,1.3393,1.3391,1.3392,1.3409,1.3409,1.341,1.341,1.341,0,0,1.296,1.2996,1.3011,1.3063,1.3091,1.3119,1.3139,1.3166,1.3187,1.322,1.3253,1.3277,1.3316,1.3345,1.3359,1.3365,1.3395,1.3391,1.339,1.3392,1.3409,1.3409,1.3409,1.3411,1.341,1.341,0,0,1.2954,1.2984,1.3006,1.3035,1.3078,1.3106,1.3111,1.3159,1.3178,1.3211,1.3237,1.3262,1.3312,1.3339,1.3359,1.3367,1.3384,1.3375,1.3367,1.3383,1.3383,1.3383,1.3386,1.3387,1.3376,1.3376,1.3376,0,1.2935,1.2978,1.3015,1.3042,1.3064,1.3098,1.3121,1.3146,1.3196,1.3211,1.3216,1.3281,1.331,1.3346,1.3349,1.3364,1.3371,1.337,1.338,1.3381,1.3381,1.3385,1.3386,1.3375,1.3375,1.3375,1.3375,0,1.2953,1.2982,1.2995,1.3045,1.3069,1.3093,1.3133,1.3153,1.3174,1.3201,1.3235,1.3271,1.3309,1.3319,1.3339,1.3359,1.3361,1.3373,1.3382,1.3379,1.3383,1.3385,1.3373,1.3374,1.3374,1.3374,0,0,1.2922,1.2994,1.2998,1.3022,1.3074,1.3097,1.3123,1.3163,1.3179,1.3213,1.3236,1.3279,1.3291,1.3314,1.3337,1.3351,1.3356,1.3362,1.3363,1.336,1.3382,1.3372,1.3373,1.3369,1.3369,1.3369,1.3379,0,1.2924,1.2975,1.3009,1.3046,1.3074,1.3108,1.3131,1.3165,1.3192,1.3219,1.3248,1.3279,1.3292,1.3306,1.3322,1.3352,1.3361,1.3352,1.339,1.3391,1.3379,1.3375,1.3365,1.3372,1.338,1.3381,1.3381,0,1.2933,1.2968,1.3008,1.3058,1.3071,1.3092,1.3132,1.3158,1.3197,1.3216,1.3243,1.3267,1.3296,1.3304,1.3345,1.3338,1.3355,1.3373,1.3374,1.3378,1.3385,1.338,1.3375,1.3376,1.3383,1.3383,1.3383,0,1.2907,1.2964,1.2996,1.3016,1.3075,1.3089,1.3114,1.3154,1.3176,1.321,1.3225,1.3262,1.3282,1.331,1.3343,1.3345,1.3381,1.3391,1.3397,1.3396,1.3402,1.3401,1.34,1.3414,1.3414,1.3414,1.3414,0,1.2905,1.2928,1.2986,1.3005,1.3033,1.3073,1.3098,1.3126,1.3162,1.3187,1.3218,1.3241,1.3284,1.3312,1.3339,1.3369,1.3378,1.3393,1.34,1.3391,1.3389,1.3402,1.3403,1.3414,1.3414,1.3414,1.3414,0,1.2881,1.292,1.2957,1.3012,1.3026,1.3044,1.309,1.311,1.314,1.3171,1.3181,1.3227,1.3262,1.3299,1.3345,1.3363,1.3393,1.3402,1.338,1.3383,1.3388,1.3387,1.3395,1.3399,1.3409,1.3409,1.3409,0,1.2877,1.2896,1.2953,1.2974,1.2999,1.303,1.3054,1.3094,1.3117,1.3165,1.3179,1.3217,1.325,1.3304,1.334,1.3377,1.3387,1.3388,1.3393,1.3383,1.3388,1.3386,1.3389,1.3386,1.3386,1.3385,1.3385,0,1.2866,1.2885,1.2919,1.296,1.2988,1.3021,1.3056,1.307,1.3118,1.3142,1.3179,1.3205,1.3254,1.3291,1.3333,1.3358,1.3379,1.3384,1.3387,1.3377,1.3364,1.3372,1.3375,1.3383,1.3383,1.3383,1.3383,1.3383,1.2852,1.2871,1.2915,1.2952,1.2983,1.3015,1.3038,1.3071,1.3104,1.3148,1.317,1.3207,1.3248,1.3306,1.3331,1.336,1.3367,1.3371,1.3373,1.3373,1.3371,1.336,1.3368,1.3368,1.3368,1.3368,1.3368,0,1.2843,1.2874,1.2907,1.2956,1.2986,1.3006,1.3046,1.3068,1.3102,1.3138,1.3171,1.3214,1.3251,1.3292,1.3331,1.3347,1.3358,1.3355,1.3354,1.336,1.3363,1.3356,1.3346,1.3346,1.3346,1.3346,1.3346,1.3346,1.2842,1.2876,1.2901,1.2951,1.2981,1.302,1.3041,1.3071,1.3101,1.3149,1.3181,1.3208,1.3246,1.3289,1.3324,1.3335,1.3348,1.3343,1.3356,1.3358,1.336,1.3361,1.3355,1.3345,1.3345,1.3352,1.3352,1.3352]}]]